Home   Weather   Bern   Past weeks

Flag for Switzerland Past Weather in Bern, Bern, Switzerland — Yesterday and Last 2 Weeks

Now
41 °F

Passing clouds.


Feels Like: 36 °F
Forecast: 32 / 43 °F
Wind: 7 mph from Northwest

Location: Bern / Belp

Current Time: Feb 24, 2017 at 7:06:00 pm

Latest Report: Feb 24, 2017 at 6:20 pm


Visibility: N/A

Pressure: 29.98 "Hg (28.08 "Hg at 533m altitude)

Humidity: 66%

Dew Point: 30 °F

Location of BernLocation

Past Weather in Bern — Graph

°F

Bern Temperature Yesterday

Maximum temperature yesterday: 66 °F (at 12:50 pm)
Minimum temperature yesterday: 28 °F (at 5:20 am)
Average temperature yesterday: 48 °F

High & Low Weather Summary for the Past Weeks

 TemperatureHumidityPressure
High66 °F (Feb 23, 12:50 pm)100% (Feb 11, 4:50 am)30.57 "Hg (Feb 11, 4:50 am)
Low21 °F (Feb 19, 7:50 am)21% (Feb 23, 12:50 pm)29.68 "Hg (Feb 23, 4:20 pm)
Average38 °F83%30.19 "Hg
* Reported Feb 9 5:20 pm — Feb 24 5:50 pm, Bern, Weather by CustomWeather, © 2017

Note: Actual official high and low records may vary slightly from our data, if they occured in-between our weather recording intervals... More about our weather records

Advertising

Bern Weather History for the Previous 24 Hours

Scroll right to see more
 ConditionsComfort  
Time TempWeatherWind HumidityBarometerVisibility
5:50 pm
Fri, Feb 24
43 °FPartly sunny.12 mph57%29.98 "HgN/A
5:20 pm45 °FScattered clouds.10 mph46%29.95 "HgN/A
4:50 pm45 °FScattered clouds.9 mph46%29.95 "HgN/A
4:20 pm46 °FScattered clouds.10 mph46%29.95 "HgN/A
3:50 pm46 °FScattered clouds.9 mph43%29.92 "HgN/A
3:20 pm45 °FBroken clouds.6 mph49%29.92 "HgN/A
2:50 pm45 °FBroken clouds.8 mph53%29.92 "HgN/A
2:20 pm45 °FPartly sunny.7 mph57%29.92 "HgN/A
1:50 pm46 °FPartly sunny.7 mph50%29.92 "HgN/A
1:20 pm45 °FPartly sunny.8 mph57%29.92 "HgN/A
12:50 pm45 °FPartly sunny.8 mph53%29.95 "HgN/A
12:20 pm45 °FBroken clouds.8 mph53%29.95 "HgN/A
11:50 am43 °FBroken clouds.7 mph66%29.95 "HgN/A
11:20 am43 °FBroken clouds.7 mph66%29.95 "HgN/A
10:50 am41 °FPartly sunny.6 mph81%29.95 "HgN/A
10:20 am39 °FBroken clouds.3 mph93%29.95 "HgN/A
9:50 am39 °FBroken clouds.1 mph93%29.95 "HgN/A
9:20 am39 °FPartly sunny.1 mph93%29.92 "HgN/A
8:50 am39 °FBroken clouds.1 mph93%29.92 "HgN/A
8:20 am39 °FBroken clouds.3 mph93%29.89 "HgN/A
7:50 am39 °FSprinkles. Partly sunny.5 mph93%29.89 "HgN/A
7:20 am39 °FSprinkles. Broken clouds.6 mph93%29.89 "HgN/A
6:50 am39 °FLight rain. Mostly cloudy.3 mph87%29.89 "HgN/A
6:20 am41 °FLight rain. Partly cloudy.5 mph81%29.89 "HgN/A
5:50 am39 °FSprinkles. Partly cloudy.9 mph87%29.86 "HgN/A
5:20 am41 °FSprinkles. Passing clouds.13 mph76%29.86 "HgN/A
4:50 am43 °FPartly cloudy.10 mph71%29.86 "HgN/A
4:20 am41 °FPartly cloudy.12 mph76%29.83 "HgN/A
3:50 am43 °FLight rain. Partly cloudy.14 mph76%29.83 "HgN/A
3:20 am43 °FLight rain. Passing clouds.14 mph81%29.83 "HgN/A
2:50 am45 °FLight rain. Passing clouds.18 mph76%29.80 "Hg4 mi
2:20 am46 °FLight rain. Passing clouds.12 mph82%29.80 "HgN/A
1:50 am48 °FPassing clouds.10 mph76%29.77 "HgN/A
1:20 am50 °FPartly cloudy.13 mph71%29.77 "HgN/A
12:50 am50 °FPassing clouds.14 mph71%29.77 "HgN/A
12:20 am50 °FLight rain. Partly cloudy.14 mph76%29.77 "HgN/A
11:50 pm
Thu, Feb 23
50 °FSprinkles. Passing clouds.15 mph76%29.77 "HgN/A
11:20 pm52 °FPassing clouds.20 mph67%29.74 "HgN/A
10:50 pm54 °FLight rain. Passing clouds.18 mph63%29.74 "HgN/A
10:20 pm54 °FPassing clouds.20 mph58%29.74 "HgN/A
9:50 pm55 °FPassing clouds.20 mph55%29.71 "HgN/A
9:20 pm59 °FPassing clouds.16 mph39%29.71 "HgN/A
8:50 pm59 °FPassing clouds.18 mph36%29.68 "HgN/A
8:20 pm59 °FPassing clouds.13 mph34%29.68 "HgN/A
7:50 pm61 °FClear.13 mph31%29.68 "Hg10 mi
7:20 pm61 °FClear.14 mph29%29.68 "Hg10 mi
Weather by CustomWeather, © 2017

See weather overviewHow to use our weather pages